[[{"header":{"parameterUnit":"m.s-1","parameterCategory":1,"la1":30.2991,"la2":30.254,"lo1":-89.0895,"lo2":-89.0444,"dy":0.0017,"dx":0.0017,"nx":28,"ny":28,"refTime":"2023-10-15T09:00:00:Z","depth":0,"parameterNumber":2,"parameterNumberName":"U-component_of_WINDS"},"data":[0,0,0,0,0,0,0,0,0,0,0,0,0,0,0,0,0,0,0,0,0,0,0,0,0,0,0,0,0,0,0,0,0,0,0,0,0,0,0,0,0,0,0,0,0,0,0,0,0,0,0,0,0,0,0,0,0,0,-0.6718,-0.6719,0,-0.6849,-0.685,-0.6852,-0.6814,-0.6811,-0.6808,-0.6806,-0.6942,-0.6948,-0.6954,0,0,0,0,0,0,0,0,0,0,0,0,0,-0.6438,-0.6443,-0.6718,-0.6719,-0.6721,-0.6848,-0.685,-0.6852,-0.6814,-0.6811,-0.6808,-0.6804,-0.694,-0.6947,-0.6954,0,0,0,0,0,0,0,0,0,0,0,0,0,-0.6563,-0.6445,-0.6717,-0.6717,-0.6719,-0.6848,-0.685,-0.6852,-0.6815,-0.6811,-0.6807,-0.6803,-0.6937,-0.6946,-0.6955,-0.7093,0,0,-0.6984,-0.6988,0,0,0,0,0,0,0,0,-0.6556,-0.6573,-0.6716,-0.6718,-0.6719,-0.6811,-0.6801,-0.6933,-0.6816,-0.6778,-0.6806,-0.6801,-0.6902,-0.6914,-0.6947,-0.71,-0.7106,-0.6984,-0.699,-0.6994,-0.6997,0,0,0,0,0,0,0,-0.6547,-0.6568,-0.677,-0.6718,-0.672,-0.6712,-0.6725,-0.6826,-0.6861,-0.6781,-0.6779,-0.6795,-0.6902,-0.6938,-0.695,-0.7108,-0.6984,-0.6992,-0.6998,-0.7002,-0.7381,-0.7385,0,0,0,0,0,0,-0.6537,-0.6561,-0.6765,-0.6773,-0.6626,-0.672,-0.6735,-0.6785,-0.686,-0.6867,-0.6798,-0.6793,-0.6924,-0.6939,-0.6955,-0.7122,-0.6994,-0.7003,-0.7008,-0.7376,-0.7382,-0.7387,0,0,0,0,0,0,-0.6531,-0.6556,-0.676,-0.6666,-0.6692,-0.6729,-0.6786,-0.679,-0.6826,-0.6873,-0.6879,-0.6829,-0.6922,-0.6942,-0.7059,-0.7126,-0.7007,-0.7015,-0.7371,-0.7378,-0.7384,-0.7457,0,0,0,0,0,0,-0.6523,-0.6554,-0.6606,-0.6668,-0.6697,-0.6862,-0.679,-0.6796,-0.6842,-0.6836,-0.6903,-0.691,-0.692,-0.7046,-0.7068,-0.7137,-0.7022,-0.7365,-0.7374,-0.7382,-0.7449,-0.7465,-0.748,0,0,0,0,0,-0.6513,-0.6622,-0.6609,-0.6634,-0.6763,-0.6866,-0.6883,-0.6891,-0.6848,-0.6901,-0.6931,-0.6908,-0.7115,-0.7058,-0.7083,-0.7155,-0.7361,-0.7372,-0.7381,-0.7442,-0.7462,-0.7479,0,0,0,0,0,0,-0.6568,-0.663,-0.6616,-0.6748,-0.6802,-0.6859,-0.6927,-0.6912,-0.6981,-0.6972,-0.6981,-0.6996,-0.7117,-0.7147,-0.7083,-0.7293,-0.7231,-0.7247,-0.7269,-0.7288,-0.7304,-0.7294,-0.703,0,0,0,0,0,-0.6595,-0.6673,-0.6723,-0.6834,-0.6862,-0.689,-0.6935,-0.6937,-0.6994,-0.7017,-0.7055,-0.7111,-0.7189,-0.724,-0.7314,-0.7452,-0.7467,-0.7514,-0.753,-0.7542,-0.7556,-0.7633,-0.7655,-0.742,-0.742,-0.742,0,0,-0.6652,-0.6695,-0.6744,-0.6846,-0.6888,-0.6969,-0.6909,-0.6998,-0.7059,-0.703,-0.7144,-0.7174,-0.7237,-0.7366,-0.7425,-0.7396,-0.7624,-0.7555,-0.7565,-0.7572,-0.7646,-0.7668,-0.7687,-0.7427,-0.7426,-0.7425,0,0,-0.6798,-0.6838,-0.6935,-0.6979,-0.7043,-0.7061,-0.7084,-0.7144,-0.7163,-0.7277,-0.7258,-0.733,-0.7463,-0.751,-0.7551,-0.7714,-0.7697,-0.7738,-0.7819,-0.7894,-0.7912,-0.7929,-0.7988,-0.8009,-0.7751,-0.7752,-0.7752,0,-0.6861,-0.6982,-0.6987,-0.7078,-0.7124,-0.7101,-0.72,-0.7242,-0.7328,-0.736,-0.7325,-0.7493,-0.7534,-0.7674,-0.7714,-0.7747,-0.7775,-0.7731,-0.7909,-0.7926,-0.7941,-0.7998,-0.802,-0.7756,-0.7756,-0.7755,-0.7755,0,-0.7057,-0.7142,-0.7213,-0.7295,-0.7349,-0.7443,-0.7464,-0.7517,-0.7514,-0.7536,-0.7653,-0.7701,-0.7785,-0.7818,-0.7816,-0.7958,-0.7938,-0.7906,-0.7845,-0.7968,-0.8022,-0.8043,-0.7763,-0.7761,-0.776,-0.7759,0,0,-0.7242,-0.7326,-0.7352,-0.739,-0.7459,-0.7525,-0.7618,-0.77,-0.7746,-0.7806,-0.7885,-0.7998,-0.797,-0.8016,-0.8019,-0.8084,-0.8212,-0.8045,-0.8046,-0.8075,-0.8373,-0.8398,-0.8423,-0.82,-0.8204,-0.8207,-0.8368,0,-0.7395,-0.7559,-0.7567,-0.7717,-0.7795,-0.7774,-0.7856,-0.7908,-0.7931,-0.8001,-0.8026,-0.8107,-0.8062,-0.809,-0.8153,-0.8183,-0.8272,-0.8171,-0.8275,-0.8279,-0.8262,-0.8451,-0.8477,-0.8626,-0.8389,-0.8392,-0.8395,0,-0.7596,-0.7661,-0.7819,-0.7877,-0.7911,-0.7984,-0.8059,-0.8126,-0.8185,-0.8197,-0.8249,-0.8243,-0.8339,-0.8273,-0.8407,-0.8338,-0.8381,-0.8402,-0.8408,-0.842,-0.8346,-0.8469,-0.8674,-0.8697,-0.8428,-0.8425,-0.8423,0,-0.7717,-0.7844,-0.7955,-0.7988,-0.8058,-0.8111,-0.8143,-0.8197,-0.8245,-0.8311,-0.8343,-0.8419,-0.8462,-0.8521,-0.8536,-0.8486,-0.867,-0.8605,-0.8684,-0.8684,-0.8725,-0.8723,-0.8942,-0.875,-0.875,-0.8749,-0.8749,0,-0.7888,-0.7985,-0.801,-0.8079,-0.8188,-0.8196,-0.8304,-0.8332,-0.8381,-0.8455,-0.8441,-0.8511,-0.8525,-0.8599,-0.8611,-0.872,-0.8739,-0.8752,-0.8755,-0.8755,-0.8753,-0.8784,-0.8775,-0.8755,-0.8754,-0.8753,-0.8752,0,-0.8042,-0.8062,-0.8182,-0.8239,-0.8256,-0.8334,-0.8383,-0.8449,-0.8469,-0.8563,-0.8586,-0.8619,-0.8705,-0.8724,-0.8826,-0.8834,-0.8965,-0.8956,-0.8945,-0.8945,-0.9023,-0.9016,-0.9271,-0.9306,-0.909,-0.9092,-0.9094,0,-0.815,-0.8225,-0.829,-0.8338,-0.8372,-0.8451,-0.85,-0.851,-0.8562,-0.8635,-0.8692,-0.8776,-0.8844,-0.8981,-0.9015,-0.9093,-0.9087,-0.9171,-0.9099,-0.9097,-0.909,-0.9086,-0.9094,-0.9185,-0.9188,-0.919,-0.9191,0,-0.8341,-0.8347,-0.8419,-0.8494,-0.8554,-0.8614,-0.8671,-0.8711,-0.873,-0.8789,-0.8876,-0.8928,-0.9032,-0.9116,-0.9194,-0.9228,-0.9214,-0.9213,-0.9236,-0.9237,-0.9228,-0.9236,-0.8984,-0.9208,-0.9206,-0.9205,-0.9204,-0.9203,-0.8477,-0.8542,-0.8598,-0.8679,-0.8722,-0.8776,-0.8841,-0.887,-0.8943,-0.9028,-0.9029,-0.9125,-0.9182,-0.9285,-0.9323,-0.9398,-0.9372,-0.9405,-0.9413,-0.9422,-0.9429,-0.9215,-0.9412,-0.9412,-0.9411,-0.9411,-0.9411,0,-0.8668,-0.8703,-0.8776,-0.8857,-0.892,-0.89,-0.8962,-0.9017,-0.91,-0.9154,-0.9221,-0.9322,-0.9403,-0.9442,-0.9523,-0.9575,-0.9571,-0.9596,-0.9593,-0.9601,-0.9447,-0.942,-0.9599,-0.9599,-0.9599,-0.9598,-0.9598,-0.9598,-0.8775,-0.8885,-0.8899,-0.9031,-0.9065,-0.9158,-0.9196,-0.9246,-0.9289,-0.9401,-0.9469,-0.9493,-0.9542,-0.9626,-0.97,-0.9709,-0.974,-0.9769,-0.9776,-0.9631,-0.9612,-0.9594,-0.9569,-0.9776,-0.9776,-0.9924,-0.9925,-0.9926]},{"header":{"parameterUnit":"m.s-1","parameterCategory":1,"la1":30.2991,"la2":30.254,"lo1":-89.0895,"lo2":-89.0444,"dy":0.0017,"dx":0.0017,"nx":28,"ny":28,"refTime":"2023-10-15T09:00:00:Z","depth":0,"parameterNumber":3,"parameterNumberName":"V-component_of_WINDS"},"data":[0,0,0,0,0,0,0,0,0,0,0,0,0,0,0,0,0,0,0,0,0,0,0,0,0,0,0,0,0,0,0,0,0,0,0,0,0,0,0,0,0,0,0,0,0,0,0,0,0,0,0,0,0,0,0,0,0,0,-3.7147,-3.7149,0,-3.7278,-3.7279,-3.7281,-3.7243,-3.724,-3.7238,-3.7235,-3.7367,-3.7373,-3.7379,0,0,0,0,0,0,0,0,0,0,0,0,0,-3.6864,-3.6869,-3.7147,-3.7149,-3.7151,-3.7277,-3.7279,-3.7281,-3.7243,-3.724,-3.7237,-3.7234,-3.7365,-3.7372,-3.7379,0,0,0,0,0,0,0,0,0,0,0,0,0,-3.699,-3.6871,-3.7147,-3.7147,-3.7148,-3.7277,-3.7279,-3.7281,-3.7244,-3.724,-3.7236,-3.7232,-3.7363,-3.7372,-3.738,-3.7516,0,0,-3.7408,-3.7412,0,0,0,0,0,0,0,0,-3.6983,-3.7,-3.7146,-3.7147,-3.7149,-3.724,-3.7228,-3.736,-3.7245,-3.7208,-3.7235,-3.723,-3.7328,-3.734,-3.7373,-3.7523,-3.7528,-3.7409,-3.7414,-3.7418,-3.7421,0,0,0,0,0,0,0,-3.6974,-3.6994,-3.7199,-3.7148,-3.715,-3.714,-3.7153,-3.7253,-3.7289,-3.7211,-3.7208,-3.7224,-3.7328,-3.7364,-3.7376,-3.753,-3.7409,-3.7417,-3.7422,-3.7426,-3.7796,-3.7801,0,0,0,0,0,0,-3.6964,-3.6987,-3.7195,-3.7203,-3.7054,-3.7148,-3.7163,-3.7215,-3.7288,-3.7295,-3.7228,-3.7222,-3.7351,-3.7365,-3.738,-3.7543,-3.7418,-3.7427,-3.7432,-3.7792,-3.7797,-3.7802,0,0,0,0,0,0,-3.6958,-3.6983,-3.7189,-3.7095,-3.712,-3.7158,-3.7216,-3.722,-3.7256,-3.73,-3.7306,-3.7258,-3.7348,-3.7367,-3.7483,-3.7547,-3.7431,-3.7439,-3.7787,-3.7794,-3.78,-3.7871,0,0,0,0,0,0,-3.695,-3.6981,-3.7034,-3.7096,-3.7125,-3.7291,-3.722,-3.7225,-3.7271,-3.7265,-3.733,-3.7337,-3.7347,-3.7469,-3.7492,-3.7558,-3.7446,-3.7781,-3.779,-3.7798,-3.7863,-3.7879,-3.7893,0,0,0,0,0,-3.694,-3.7049,-3.7037,-3.7062,-3.7192,-3.7295,-3.7311,-3.732,-3.7277,-3.733,-3.7358,-3.7335,-3.7537,-3.7481,-3.7506,-3.7576,-3.7777,-3.7787,-3.7797,-3.7856,-3.7876,-3.7893,0,0,0,0,0,0,-3.6993,-3.7057,-3.7044,-3.7176,-3.723,-3.7288,-3.7355,-3.7341,-3.7408,-3.7399,-3.7407,-3.7422,-3.754,-3.7569,-3.7507,-3.771,-3.765,-3.7666,-3.7687,-3.7706,-3.7721,-3.7711,-3.7453,0,0,0,0,0,-3.702,-3.7099,-3.715,-3.7261,-3.7289,-3.7318,-3.7363,-3.7365,-3.7421,-3.7443,-3.748,-3.7535,-3.761,-3.766,-3.7732,-3.7867,-3.788,-3.7927,-3.7942,-3.7954,-3.7967,-3.804,-3.8061,-3.7835,-3.7835,-3.7835,0,0,-3.7077,-3.7122,-3.7171,-3.7273,-3.7315,-3.7396,-3.7337,-3.7425,-3.7484,-3.7456,-3.7567,-3.7596,-3.7658,-3.7783,-3.784,-3.7811,-3.8032,-3.7967,-3.7976,-3.7983,-3.8052,-3.8074,-3.8092,-3.7842,-3.784,-3.7839,0,0,-3.7221,-3.7263,-3.736,-3.7403,-3.7468,-3.7486,-3.7509,-3.7569,-3.7587,-3.7698,-3.7679,-3.7749,-3.7879,-3.7923,-3.7963,-3.8122,-3.8104,-3.8146,-3.8224,-3.8295,-3.8313,-3.8328,-3.8385,-3.8405,-3.8159,-3.8159,-3.8159,0,-3.7284,-3.7405,-3.7412,-3.7501,-3.7546,-3.7525,-3.7622,-3.7663,-3.7748,-3.7779,-3.7746,-3.7908,-3.7948,-3.8083,-3.8121,-3.8154,-3.818,-3.8138,-3.831,-3.8326,-3.834,-3.8394,-3.8415,-3.8163,-3.8163,-3.8162,-3.8162,0,-3.7477,-3.7561,-3.7632,-3.7714,-3.7767,-3.786,-3.788,-3.7933,-3.793,-3.7951,-3.8064,-3.8111,-3.8192,-3.8224,-3.8222,-3.8358,-3.8338,-3.8307,-3.8247,-3.8366,-3.8417,-3.8437,-3.817,-3.8168,-3.8167,-3.8166,0,0,-3.766,-3.7744,-3.777,-3.7806,-3.7875,-3.7939,-3.8031,-3.811,-3.8154,-3.8213,-3.8289,-3.8399,-3.837,-3.8415,-3.8418,-3.848,-3.8602,-3.8441,-3.8443,-3.8469,-3.8754,-3.8777,-3.88,-3.859,-3.8594,-3.8597,-3.8749,0,-3.781,-3.7971,-3.7979,-3.8125,-3.8202,-3.8182,-3.8261,-3.8312,-3.8334,-3.8401,-3.8425,-3.8503,-3.846,-3.8486,-3.8547,-3.8574,-3.8659,-3.8564,-3.866,-3.8663,-3.8645,-3.8827,-3.8852,-3.8993,-3.8768,-3.8772,-3.8774,0,-3.8006,-3.8071,-3.8225,-3.8281,-3.8314,-3.8385,-3.8457,-3.8523,-3.8579,-3.859,-3.864,-3.8633,-3.8725,-3.8662,-3.8789,-3.8724,-3.8763,-3.8783,-3.8788,-3.8797,-3.8726,-3.8841,-3.9038,-3.9059,-3.8806,-3.8803,-3.8801,0,-3.8123,-3.8248,-3.8356,-3.8388,-3.8457,-3.8507,-3.8538,-3.859,-3.8637,-3.8699,-3.8729,-3.8802,-3.8842,-3.8898,-3.8911,-3.8864,-3.9038,-3.8975,-3.9049,-3.9049,-3.9087,-3.9084,-3.9293,-3.9113,-3.9113,-3.9112,-3.9112,0,-3.8289,-3.8384,-3.8409,-3.8476,-3.8581,-3.8589,-3.8692,-3.872,-3.8766,-3.8836,-3.8823,-3.889,-3.8903,-3.8972,-3.8982,-3.9085,-3.9103,-3.9114,-3.9116,-3.9116,-3.9114,-3.9142,-3.9132,-3.9118,-3.9116,-3.9115,-3.9114,0,-3.8438,-3.8458,-3.8575,-3.863,-3.8646,-3.8721,-3.8768,-3.8831,-3.885,-3.894,-3.8961,-3.8992,-3.9073,-3.9091,-3.9186,-3.9193,-3.9315,-3.9307,-3.9296,-3.9296,-3.9368,-3.9361,-3.9602,-3.9633,-3.9433,-3.9435,-3.9436,0,-3.8542,-3.8615,-3.8677,-3.8724,-3.8757,-3.8832,-3.8879,-3.8889,-3.8939,-3.9007,-3.9062,-3.9141,-3.9204,-3.9333,-3.9364,-3.9436,-3.943,-3.9509,-3.9441,-3.9438,-3.9431,-3.9426,-3.9433,-3.9522,-3.9525,-3.9526,-3.9528,0,-3.8726,-3.8732,-3.8801,-3.8873,-3.893,-3.8987,-3.9042,-3.908,-3.9098,-3.9154,-3.9236,-3.9285,-3.9382,-3.946,-3.9533,-3.9563,-3.9549,-3.9549,-3.957,-3.957,-3.9561,-3.9566,-3.9332,-3.9543,-3.9542,-3.9541,-3.954,-3.9539,-3.8855,-3.8918,-3.8972,-3.9048,-3.909,-3.9141,-3.9203,-3.923,-3.9299,-3.9379,-3.938,-3.9469,-3.9522,-3.9618,-3.9653,-3.9722,-3.9698,-3.9728,-3.9736,-3.9743,-3.9749,-3.9549,-3.9736,-3.9735,-3.9735,-3.9734,-3.9734,0,-3.9038,-3.9071,-3.9141,-3.9218,-3.9278,-3.9258,-3.9317,-3.9368,-3.9447,-3.9497,-3.956,-3.9653,-3.9729,-3.9765,-3.9839,-3.9887,-3.9882,-3.9906,-3.9903,-3.991,-3.9767,-3.9742,-3.9909,-3.9909,-3.9909,-3.9909,-3.9909,-3.9909,-3.914,-3.9245,-3.9257,-3.9382,-3.9414,-3.9502,-3.9537,-3.9583,-3.9624,-3.9729,-3.9791,-3.9814,-3.9858,-3.9935,-4.0003,-4.0012,-4.0039,-4.0067,-4.0072,-3.9938,-3.992,-3.9903,-3.9879,-4.0073,-4.0073,-4.0209,-4.0211,-4.0212]}]]